User: anonymous   Login
Location: Berg
(47.2344°N, 9.5296°E)
Time: 13:54:45
(UTC+00:00)
Language:

Cosmos 2278 Rocket - Orbit

View from above orbital plane
View from above orbital plane
View from above satellite
View from above satellite

Ground track
Ground track

The orbit data is extracted from the following two-line orbital elements,

1 23088U 94023B   21125.90168015  .00000186  00000-0  12156-3 0  9993
2 23088  71.0000 184.3227 0001349 129.5681 230.5561 14.14687640395917
Epoch (UTC): 05 May 2021 21:38:25
Eccentricity: 0.0001349
inclination: 71.0000°
perigee height: 842 km
apogee height: 844 km
right ascension of ascending node: 184.3227°
argument of perigee: 129.5681°
revolutions per day: 14.14687640
mean anomaly at epoch: 230.5561°
orbit number at epoch: 39591

The dashed part of the orbit path shows where the satellite is in the earth's shadow,  

DLR